Wind_Speed
8 9 10 9 9 8 8 9 10 12 13 13 12 11 10 7 8 11 11 13 14 11 10 10 9 9 9 9 10 10 11 13 14 13 12 10 9 9 9 10 10 9 9 8 8 9 9 9 9 9 10 11 12 13 15 17 18 19 19 20 21 22 23 24 26 27 28 29 30 32 33 35 37 38 39 40 41 41 41 40 40 40 40 40 40 41 41
8 9 9 8 6 7 9 11 12 14 16 16 14 12 13 12 13 14 14 15 15 11 8 6 5 7 8 8 9 6 1 4 7 8 8 8 8 8 10 11 11 11 11 12 12 12 12 12 12 12 13 14 15 17 19 22 23 23 24 25 26 27 29 30 31 32 33 33 34 35 35 36 38 39 40 41 43 44 44 44 44 45 45 44 44 44 44
6 9 8 6 5 7 9 11 14 16 16 15 13 12 13 12 13 14 14 14 12 6 1 3 4 6 7 7 7 5 3 1 4 5 5 6 7 8 10 11 12 13 14 14 14 13 13 13 13 14 15 15 16 18 19 21 22 23 24 26 28 31 33 35 36 37 37 38 38 39 39 39 40 40 41 42 43 44 46 46 47 48 48 48 48 47 48
7 8 7 6 5 5 8 13 17 18 15 13 12 11 10 11 13 14 12 11 9 2 4 4 2 4 6 7 7 5 3 1 2 3 4 5 7 8 10 12 14 15 15 16 15 15 14 13 14 14 15 16 17 18 19 20 21 21 22 24 27 31 33 35 36 37 38 39 40 41 41 42 43 44 45 46 47 48 49 50 50 51 52 52 52 51 51
6 7 6 3 1 3 8 12 13 14 14 13 12 11 11 13 13 10 9 7 5 1 3 2 2 4 6 7 7 6 4 2 1 3 6 7 8 10 12 13 14 16 17 18 17 17 16 15 15 15 15 16 17 19 20 21 21 21 23 26 29 32 33 34 36 37 38 39 41 43 44 45 46 47 48 50 51 52 53 54 55 55 56 56 56 55 54
5 7 5 1 2 7 9 4 4 8 10 10 10 10 11 11 8 6 7 6 2 3 3 3 3 4 5 6 6 5 5 5 6 8 9 10 11 12 12 14 15 16 17 19 19 19 18 17 16 15 16 17 18 19 20 21 22 23 26 30 32 34 36 36 37 37 38 39 42 44 46 47 48 49 50 51 53 54 54 56 57 58 59 59 58 58 57
4 4 3 3 8 9 4 1 4 6 5 6 9 10 10 10 9 9 9 5 2 6 7 7 6 5 5 7 9 10 9 9 10 12 13 14 13 13 14 15 16 16 16 17 19 19 18 17 17 17 17 18 20 21 21 23 25 27 30 32 35 36 38 39 38 39 40 41 44 46 48 48 48 49 50 51 52 53 53 55 57 59 59 60 60 59 59
3 3 4 7 7 4 3 3 3 1 2 5 7 8 8 8 7 5 1 4 7 8 8 7 5 5 6 9 14 14 12 11 12 13 15 14 14 14 15 16 17 18 17 17 18 19 19 19 19 19 20 21 22 23 24 26 28 30 32 34 37 38 39 40 41 42 43 45 47 49 49 48 48 49 50 51 52 53 53 55 57 58 59 60 60 60 61
4 4 7 7 7 8 8 6 3 1 2 3 3 3 4 4 2 2 6 7 7 7 6 4 4 5 5 8 13 14 11 8 10 11 12 12 12 13 13 14 16 17 17 17 18 18 19 20 20 22 24 24 25 26 27 29 31 33 35 37 39 40 42 44 45 46 46 47 49 49 49 49 50 51 52 53 53 53 53 54 56 58 59 60 60 61 62
4 4 6 6 7 8 5 3 2 2 4 2 1 0 2 3 1 6 11 8 5 5 3 3 3 4 3 3 9 12 8 5 5 7 9 10 11 12 13 14 16 17 17 17 17 18 19 21 23 25 26 27 28 29 32 34 36 37 39 41 43 45 47 48 49 50 50 49 50 50 50 51 52 52 53 54 54 53 52 53 55 56 57 59 61 62 62
5 5 6 7 7 6 2 5 4 3 5 6 7 4 3 2 3 10 12 7 5 4 1 4 2 1 1 3 8 10 7 7 9 9 11 12 12 13 13 15 17 18 18 19 19 21 23 26 27 27 28 29 31 34 36 37 39 40 42 45 48 50 51 52 53 53 52 51 51 51 51 52 52 53 53 54 54 53 52 52 54 55 56 57 59 61 60
8 7 7 6 5 4 3 6 4 1 4 7 6 6 6 4 7 8 7 3 2 2 3 5 3 4 5 7 12 14 12 14 16 16 17 17 15 15 15 16 17 19 20 22 24 25 26 27 28 29 30 33 35 36 37 38 40 43 46 48 50 52 53 53 53 53 52 52 52 51 52 53 53 53 53 53 53 53 52 52 53 54 55 55 56 59 60
9 9 7 5 5 6 6 6 7 3 4 5 3 8 5 8 11 6 1 3 5 5 7 7 8 10 12 15 17 18 18 19 20 19 19 17 16 16 17 19 20 22 24 26 26 27 27 27 29 31 33 35 36 36 38 40 43 46 48 50 51 52 52 53 53 53 53 53 53 54 54 54 54 55 53 52 52 52 52 51 51 52 53 53 54 57 59
6 7 6 6 6 4 5 3 7 6 4 1 6 5 6 13 15 7 5 8 10 10 12 13 14 16 18 17 17 18 19 19 19 19 19 18 17 17 19 21 23 26 27 27 27 27 28 29 31 33 34 34 35 37 40 43 45 47 49 50 50 51 52 53 54 54 55 55 55 55 54 53 54 55 54 52 51 50 49 48 49 50 50 49 50 53 55
4 4 6 7 6 3 7 5 0 4 6 4 5 6 9 14 14 8 8 11 13 13 14 16 16 17 17 17 17 17 17 17 18 19 19 19 18 19 20 23 26 28 28 28 28 28 29 30 32 32 33 34 37 40 43 44 46 47 48 48 49 51 52 54 54 55 55 55 54 54 54 53 53 53 53 51 49 47 45 45 45 46 46 46 46 49 51
5 4 5 5 3 3 8 8 4 6 9 10 8 6 9 13 14 12 12 14 16 15 14 16 17 16 16 16 17 17 17 18 19 19 19 19 20 22 23 26 28 29 28 28 29 29 30 31 31 32 33 37 40 42 44 45 45 46 46 47 49 51 52 53 54 54 54 54 53 53 52 51 51 51 49 48 46 45 43 42 43 45 45 45 45 47 49
5 5 6 4 5 8 8 11 11 12 15 18 17 13 12 14 16 17 16 17 17 15 14 16 16 16 17 17 18 18 19 19 19 19 20 22 24 25 26 28 29 29 28 29 29 30 30 30 31 33 36 39 42 43 43 43 43 44 46 48 49 50 51 52 53 53 53 53 52 51 51 50 50 49 48 47 46 44 43 42 43 45 45 45 45 46 48
5 7 10 10 13 18 17 15 16 17 19 23 24 23 23 25 26 24 21 19 18 16 14 14 15 17 19 20 20 21 21 20 20 21 22 23 25 26 27 28 29 28 28 29 29 29 29 29 32 35 38 40 42 42 41 41 42 44 46 47 48 49 50 51 51 51 52 53 52 52 51 49 48 47 46 45 44 43 42 43 43 44 45 46 45 46 48
6 5 7 8 12 20 23 22 21 21 22 26 27 27 27 26 23 21 18 17 16 15 14 15 17 20 21 21 22 23 22 21 22 22 23 24 25 27 27 28 28 28 28 29 28 28 29 31 34 38 40 41 41 39 39 40 41 43 44 46 47 49 49 50 50 51 51 52 51 49 47 45 44 43 42 41 42 42 42 42 43 44 45 46 45 46 48
9 6 8 14 20 25 26 25 23 22 24 26 26 26 27 24 20 19 18 17 16 16 17 19 21 22 22 22 22 22 21 22 23 24 25 26 26 27 27 27 27 28 28 27 28 29 31 34 37 39 41 40 38 36 37 38 40 42 43 44 46 48 48 49 49 49 49 48 47 46 44 42 42 42 41 41 41 41 40 41 43 45 45 46 46 47 49
7 6 9 15 17 19 23 27 27 27 28 29 28 27 26 24 22 21 19 19 18 18 20 22 22 23 23 22 21 22 22 23 24 25 26 27 27 27 27 27 27 27 27 27 28 30 34 36 39 40 40 38 35 34 35 36 38 40 42 44 46 47 47 48 47 46 45 44 43 44 44 44 43 42 41 41 40 41 40 39 40 42 44 46 47 48 49
6 6 9 12 10 8 16 25 27 26 25 25 25 25 23 21 21 20 18 18 19 20 22 24 24 24 24 23 23 23 23 24 25 26 26 26 26 26 26 26 26 25 26 28 30 33 36 38 40 40 39 35 33 32 34 35 36 39 41 44 45 46 46 45 44 43 43 43 43 43 44 45 45 44 43 40 39 39 40 39 37 38 40 43 44 45 47
8 10 14 17 14 12 18 25 26 24 22 19 19 20 20 20 21 21 21 21 21 22 25 26 26 26 25 24 24 24 24 24 25 25 25 25 26 26 26 26 25 25 27 29 32 35 37 38 39 39 36 33 31 31 32 33 35 37 40 42 44 44 44 43 42 41 42 43 44 44 44 44 45 45 46 44 41 39 38 38 38 37 38 40 40 41 43
13 19 23 22 19 19 24 27 27 26 25 23 21 21 21 22 23 23 23 23 23 24 25 26 27 26 25 25 25 25 25 25 24 24 25 25 26 26 25 25 25 27 29 31 34 36 37 38 38 37 34 31 29 30 31 32 34 36 38 40 42 43 42 41 40 40 42 43 44 44 44 44 44 44 46 47 47 44 41 39 39 40 39 39 40 40 40
26 29 31 28 26 29 32 32 31 30 29 28 26 24 23 24 25 25 26 25 25 25 25 26 26 26 25 25 26 25 24 24 24 25 25 26 25 24 24 24 26 28 31 33 35 36 37 37 36 34 32 29 28 29 30 31 33 35 36 37 39 40 39 38 39 40 41 43 44 44 43 44 44 44 44 46 48 50 48 45 43 42 42 41 41 41 40
34 34 34 32 31 34 35 34 33 32 30 29 28 26 24 24 25 25 25 25 25 25 25 25 26 26 26 26 25 24 23 23 24 25 25 25 24 23 23 25 27 30 33 35 36 36 36 35 34 32 30 28 27 29 30 31 33 35 35 36 37 37 36 36 37 39 41 43 43 43 42 42 42 42 43 44 46 49 50 50 48 47 45 43 41 41 42
35 35 32 25 24 31 35 35 34 34 32 29 28 27 26 25 24 24 24 24 24 24 24 24 25 25 25 25 24 23 23 23 24 25 24 23 22 22 23 26 29 31 34 35 36 36 35 33 32 31 29 27 27 28 29 30 32 34 35 35 36 35 34 34 36 38 41 42 42 42 41 40 40 41 42 43 44 45 46 48 50 50 49 47 43 42 42
33 34 31 24 24 30 35 34 33 32 30 28 27 27 26 25 24 24 23 23 24 24 24 24 25 25 25 24 24 24 24 24 24 23 22 22 21 22 25 28 30 32 34 35 35 34 33 31 31 30 27 26 26 27 28 30 32 34 34 35 35 34 34 34 35 37 40 41 41 40 40 39 39 40 41 42 42 43 44 45 47 49 50 49 46 43 41
34 35 34 32 31 33 33 31 30 29 29 28 28 26 25 25 25 25 25 24 24 24 24 25 25 24 24 24 24 24 23 23 23 22 21 21 22 23 26 29 31 33 34 34 33 32 31 30 30 29 27 25 25 27 28 29 31 33 33 34 34 34 34 34 35 37 39 39 39 38 37 37 38 39 39 40 41 42 43 44 45 46 48 48 48 46 42
36 34 33 32 31 30 30 30 30 29 28 28 26 25 25 25 25 25 26 25 25 25 25 25 24 24 23 23 23 23 23 23 22 22 21 21 22 24 27 30 32 34 34 34 32 30 29 28 28 27 25 24 25 26 27 29 30 31 32 33 32 32 33 33 35 37 38 39 38 37 36 36 36 38 39 40 40 41 42 43 44 45 46 46 46 46 44
33 30 29 29 28 28 28 29 28 27 26 25 25 26 27 27 27 26 26 26 26 25 25 24 24 22 21 21 22 22 22 22 22 22 22 22 23 25 27 30 32 34 35 34 31 28 27 27 26 24 23 23 24 25 26 28 30 30 31 32 31 30 30 31 34 35 37 37 37 36 35 35 36 37 37 38 39 40 41 42 43 44 44 45 44 43 42
26 23 24 25 25 25 26 28 28 27 26 27 28 29 29 28 26 25 25 24 25 25 24 24 22 21 20 21 21 21 21 22 22 23 23 23 24 26 27 30 32 33 34 33 30 28 27 26 24 23 22 22 22 23 25 27 28 29 31 31 30 29 29 31 33 34 35 35 35 34 34 34 34 35 36 36 37 38 39 40 41 42 42 43 43 41 39
21 19 20 23 24 24 26 28 28 28 28 29 29 29 28 27 25 24 23 24 25 24 24 22 21 20 20 20 20 20 21 22 23 23 24 25 26 27 28 30 32 32 32 30 28 26 25 24 23 22 21 20 21 22 24 25 27 28 29 30 29 29 29 30 31 32 33 33 33 33 32 32 32 33 34 34 34 35 36 37 38 39 39 40 40 38 36
26 26 27 28 26 25 26 27 26 26 26 27 27 27 26 25 24 23 23 23 23 22 21 20 20 20 20 20 20 21 21 23 24 24 24 26 27 28 29 30 31 30 30 27 25 23 22 21 21 21 19 19 20 21 22 24 25 26 28 29 29 28 28 29 29 30 31 32 32 31 31 31 30 31 31 31 31 32 33 33 34 35 35 36 36 35 32
30 30 30 29 27 26 26 26 24 23 22 23 23 24 23 23 23 22 22 21 20 19 20 20 19 20 20 20 21 22 23 23 24 25 25 27 28 29 30 30 29 29 27 23 20 20 20 19 19 19 18 18 18 19 21 22 23 24 27 28 28 27 27 27 27 28 28 29 30 30 30 30 29 29 29 29 29 29 30 31 32 32 32 33 33 32 31
29 28 28 27 26 25 25 24 23 21 20 19 20 20 20 20 20 20 20 19 18 18 19 19 19 20 20 20 22 23 24 24 24 25 26 28 29 30 31 30 29 28 25 20 16 17 18 17 16 16 17 17 17 18 19 21 22 23 25 27 27 26 25 25 26 26 26 27 27 28 28 28 28 27 27 27 27 27 28 29 30 30 30 31 31 31 30
28 26 25 25 23 22 22 21 20 19 18 17 18 18 18 18 18 18 17 17 17 18 19 19 20 20 21 22 23 24 24 24 25 26 27 29 30 31 31 30 27 25 24 20 16 15 16 15 15 14 15 16 16 16 17 19 21 22 24 25 25 25 25 25 25 26 26 25 25 26 26 26 27 26 26 26 26 27 27 28 29 29 29 29 29 29 29
25 24 23 22 21 20 20 19 18 17 16 16 16 16 16 16 16 16 16 15 16 18 19 20 20 21 22 23 24 25 24 24 25 27 28 29 30 31 31 29 26 23 21 19 16 14 14 15 14 14 14 15 15 15 16 17 19 21 22 23 23 24 24 25 25 25 25 25 24 24 25 26 27 27 26 26 26 26 27 28 28 29 29 28 28 28 28
23 22 20 20 19 18 17 16 16 15 15 14 14 15 15 15 15 15 15 15 16 18 20 20 21 23 24 24 26 26 25 25 26 27 29 29 29 31 32 29 24 20 20 18 16 14 14 14 14 13 14 14 15 14 15 16 18 19 21 21 22 22 23 23 23 23 23 23 23 24 24 25 26 27 27 27 27 27 27 28 29 29 30 29 29 28 28
20 19 18 17 16 16 15 14 14 13 13 12 13 13 14 15 15 15 16 16 17 19 21 21 23 24 25 26 28 28 27 27 27 27 28 29 29 31 32 27 19 17 18 17 15 14 14 13 13 13 13 14 14 14 14 15 17 18 19 20 20 20 21 21 21 22 22 22 23 24 24 24 25 26 27 28 28 28 28 29 30 30 31 30 30 30 30
17 16 16 14 14 13 13 12 11 11 11 11 12 13 14 15 15 16 16 17 18 20 22 23 25 26 27 28 29 30 30 29 28 27 28 28 28 30 29 23 14 14 16 15 13 13 13 13 13 13 13 12 13 13 14 15 16 17 18 18 19 19 20 20 20 20 21 22 23 23 24 24 24 25 27 27 28 28 28 29 30 30 31 31 32 32 32
14 13 13 11 11 10 10 9 9 9 9 10 11 12 13 15 15 16 18 18 19 21 22 23 25 27 28 29 30 31 31 30 29 27 27 27 26 27 25 18 12 12 14 13 12 13 13 12 12 13 12 12 12 12 13 14 15 16 16 17 17 18 18 19 19 19 19 19 20 21 22 23 23 24 25 26 27 27 27 28 28 29 29 30 30 31 32
11 10 10 9 8 8 8 8 8 9 9 10 11 11 13 15 16 18 19 20 21 22 24 24 25 27 28 29 30 31 30 29 27 26 25 23 21 21 20 15 11 12 13 13 12 12 12 11 11 11 11 11 11 12 12 13 14 15 15 16 16 16 17 17 18 18 18 18 19 19 20 21 22 23 23 24 25 25 26 26 26 26 27 27 28 28 29
9 9 8 8 8 8 8 8 8 8 9 10 11 12 14 15 17 19 20 21 22 23 24 24 25 25 25 26 27 28 27 26 24 22 21 19 16 15 14 13 12 12 12 12 12 12 11 11 10 10 10 10 11 12 12 13 14 14 14 15 15 16 16 16 17 17 18 18 19 19 19 20 21 21 22 22 23 23 23 24 24 24 24 25 25 26 27
9 8 8 8 8 7 7 7 7 8 9 9 10 13 15 16 17 19 20 21 22 22 23 23 24 23 23 23 23 23 23 22 20 18 18 17 14 11 11 12 12 11 11 12 11 11 10 10 9 9 9 9 10 11 12 12 13 14 14 14 14 15 15 16 16 17 17 18 18 19 19 19 19 20 20 20 21 21 21 22 22 22 22 23 24 24 25
9 8 8 7 6 6 6 6 7 8 9 9 10 12 14 16 17 18 18 19 20 20 20 20 21 20 19 19 19 19 19 19 17 15 15 14 12 10 10 11 11 11 11 11 11 9 9 8 8 8 9 9 10 10 11 12 13 13 13 13 14 14 14 15 15 16 16 17 18 18 19 19 19 19 19 18 19 19 19 19 19 19 20 20 20 21 21
8 7 7 6 5 5 6 7 8 9 10 10 10 11 13 14 15 16 16 17 17 17 17 17 17 16 15 16 16 16 16 16 14 12 11 11 11 10 9 9 10 10 10 10 9 8 7 6 7 7 8 8 9 10 10 11 12 12 12 13 14 14 14 14 15 15 15 16 16 17 17 18 18 18 18 17 17 17 17 17 17 17 17 17 18 18 18
7 6 5 5 4 5 6 7 8 9 10 10 11 11 12 12 13 13 14 14 14 14 14 14 13 13 12 12 12 13 13 13 11 9 8 8 9 8 8 8 9 9 9 8 7 7 6 6 6 7 8 8 8 9 10 10 11 12 12 12 13 13 13 14 14 14 15 15 15 16 16 16 17 17 17 17 17 17 16 16 16 16 16 16 16 17 17
6 5 4 4 4 4 5 6 7 8 8 9 10 10 11 12 12 11 11 11 12 12 12 11 11 10 9 8 8 8 8 9 9 8 8 8 8 8 8 8 9 8 7 7 6 6 7 7 7 8 8 8 8 9 9 10 11 12 12 12 12 13 13 14 14 14 15 15 15 15 15 15 15 16 16 16 16 16 15 15 15 15 15 15 15 15 15
5 4 3 3 3 4 5 5 6 6 7 8 8 9 10 10 10 9 9 9 10 10 9 9 9 8 8 7 7 6 5 6 6 7 7 7 8 8 8 8 7 7 7 6 6 7 7 8 8 9 9 8 9 9 9 9 10 11 11 11 11 12 13 13 14 14 14 14 14 14 15 15 15 14 14 14 14 14 14 14 14 13 13 13 13 13 14
4 3 3 3 2 3 3 4 5 5 6 6 7 8 9 9 9 8 7 7 8 8 7 6 6 7 7 7 6 6 5 4 4 4 5 6 6 7 7 7 7 7 7 7 7 8 8 8 8 9 8 8 9 9 9 9 10 10 11 11 12 12 13 13 13 14 14 14 14 14 14 14 14 14 14 14 14 13 13 13 13 12 12 12 12 13 13
4 3 3 2 2 2 2 3 4 4 5 5 6 7 8 8 8 7 6 6 6 6 6 5 5 6 6 6 6 5 5 4 4 4 5 5 6 6 7 7 7 7 8 8 8 9 8 8 8 8 8 8 8 9 9 10 10 11 11 12 12 13 14 14 14 14 14 14 14 15 15 15 15 15 14 14 14 13 13 13 13 12 12 12 12 12 12
Wind_Direction
261 266 272 277 281 284 281 277 276 277 276 269 262 263 268 268 263 265 273 276 273 274 278 284 295 304 305 310 305 283 253 236 222 211 211 214 217 225 230 231 230 234 247 261 269 278 283 285 291 296 299 305 307 309 313 316 316 316 316 314 316 317 317 318 319 318 318 317 316 316 316 316 316 317 317 317 317 316 316 315 315 313 312 311 310 309 309
270 268 270 279 286 289 285 275 272 272 269 267 268 270 269 264 262 266 273 272 271 277 285 291 324 338 332 336 341 340 298 211 202 198 204 213 221 225 227 233 238 240 246 253 257 265 271 275 283 290 295 302 307 311 317 320 319 318 318 317 318 320 320 321 321 320 319 318 316 315 315 315 315 315 315 315 315 315 315 315 314 313 312 310 309 308 307
278 267 269 281 279 277 279 276 271 266 266 271 272 268 270 273 271 269 270 273 277 284 347 51 22 356 1 17 19 26 53 141 189 195 206 221 233 235 233 239 244 244 246 251 255 259 264 269 274 278 282 287 292 298 306 310 311 312 312 312 316 319 321 322 321 320 319 318 317 316 316 316 315 315 314 313 313 313 313 312 312 311 310 309 308 307 306
265 268 275 275 271 277 272 266 262 260 263 267 264 263 268 269 271 275 277 276 276 287 81 73 10 17 43 40 31 29 30 83 163 196 236 252 255 252 252 254 254 251 252 256 261 263 265 269 273 275 279 282 284 287 293 297 299 300 300 303 309 313 316 318 317 317 316 315 315 315 315 315 315 314 313 312 312 312 311 310 309 308 307 306 305 304 303
262 269 276 276 288 280 264 258 254 252 254 257 258 260 260 259 264 270 270 264 251 180 93 33 2 55 59 36 23 19 2 343 307 269 270 272 272 270 270 270 267 264 263 263 266 267 268 273 277 278 279 281 284 287 291 293 293 292 295 300 305 309 312 313 312 313 313 312 313 314 314 314 313 313 312 312 311 311 310 308 307 305 304 303 301 300 299
260 268 290 356 227 250 259 246 217 234 246 254 262 262 257 258 261 257 263 267 222 130 99 72 58 51 32 9 356 342 325 308 289 284 278 275 277 280 282 283 282 280 278 275 272 271 274 277 277 274 275 282 290 293 293 292 290 290 294 299 305 309 311 312 311 311 311 310 311 312 312 311 311 310 309 309 309 308 307 306 304 303 302 300 298 297 295
253 270 300 272 240 243 257 180 200 232 245 247 255 261 262 264 267 272 281 291 85 90 80 70 52 20 350 330 313 304 304 293 278 276 276 275 277 283 286 287 289 291 292 290 284 278 275 272 268 270 281 292 298 298 295 293 293 295 298 303 308 311 312 312 312 312 311 310 309 309 309 308 307 306 305 305 304 304 302 301 301 301 300 299 298 296 295
247 241 228 239 252 265 273 256 236 241 249 240 253 268 265 256 260 272 294 97 95 81 69 56 27 348 323 308 302 304 308 296 279 273 273 274 278 285 291 294 296 300 303 302 294 281 271 266 268 279 292 299 299 298 296 297 299 302 304 307 310 312 313 313 313 312 310 309 308 307 307 306 304 302 301 301 301 301 299 299 299 299 298 298 297 296 295
231 229 230 250 288 292 272 264 269 113 177 211 226 258 260 256 250 162 129 114 98 85 70 36 349 327 321 304 301 311 315 294 279 276 273 276 282 287 293 297 298 300 301 298 290 276 266 268 278 289 296 299 299 300 302 304 307 309 310 312 314 314 313 313 312 311 309 307 307 306 305 304 302 302 301 301 301 300 298 297 297 296 296 295 295 294 293
232 239 251 259 272 271 253 228 212 107 88 72 53 288 279 308 349 129 128 122 105 89 52 342 328 328 331 301 300 312 319 305 299 287 266 265 273 281 289 293 294 294 293 289 282 274 274 282 290 295 299 302 305 308 309 311 312 313 314 315 315 315 314 313 312 310 308 307 307 306 306 305 304 304 303 302 300 299 296 294 294 294 293 292 292 291 290
238 240 253 248 251 262 208 172 183 134 82 43 19 352 286 269 108 113 115 121 125 108 333 288 273 295 280 263 284 293 300 312 314 297 275 270 274 282 289 292 291 292 290 285 281 281 286 293 297 300 303 307 309 310 311 312 313 314 315 315 315 314 313 312 310 309 309 309 309 308 307 306 305 304 302 301 300 299 297 294 293 293 292 291 290 290 288
232 233 245 242 249 262 191 173 192 184 72 55 25 318 270 194 145 122 109 124 168 167 268 266 224 197 214 254 277 280 280 290 294 289 284 280 276 279 286 289 292 293 291 289 288 291 295 298 301 304 306 308 309 309 311 312 313 314 315 314 313 312 310 310 310 310 311 311 311 310 308 307 306 305 304 303 302 301 300 298 296 294 292 290 289 288 287
230 235 246 250 252 243 213 215 243 242 78 63 282 269 247 181 175 166 123 272 260 249 246 240 233 242 253 265 276 279 281 286 289 288 285 280 274 278 283 286 292 296 295 295 296 298 300 303 304 306 306 307 308 309 311 312 314 314 314 312 311 310 310 311 313 314 314 313 312 312 310 309 309 307 306 306 305 304 303 301 298 296 294 292 290 289 287
229 232 239 255 266 235 182 218 256 219 134 114 244 230 169 176 188 204 251 266 272 263 250 247 252 265 274 275 275 280 284 288 290 287 283 277 274 277 279 282 291 297 299 299 299 300 302 304 304 305 305 307 309 311 312 313 314 313 312 311 311 312 314 316 316 316 315 314 313 312 312 311 310 309 309 309 308 307 306 304 302 300 299 298 295 293 291
209 230 238 244 265 220 151 133 279 193 183 224 224 183 173 188 201 225 249 263 278 273 262 263 265 270 276 276 276 281 285 289 291 287 280 274 272 274 277 282 292 299 300 299 300 301 303 303 304 305 307 309 310 311 313 314 313 311 311 312 314 316 318 318 317 316 315 314 314 313 313 313 312 311 310 310 310 309 308 307 306 304 303 302 300 297 296
178 212 226 202 197 199 177 174 205 221 227 244 240 211 202 205 215 235 251 265 277 276 270 271 269 268 272 275 279 283 284 288 290 283 276 274 274 275 279 286 295 299 299 299 300 301 302 303 305 307 309 311 311 312 314 313 312 312 313 316 318 319 318 317 316 316 316 315 315 314 314 315 314 313 313 313 312 312 310 309 307 306 305 304 301 298 297
194 213 240 247 303 289 228 197 214 238 250 259 260 256 251 247 252 260 264 271 278 280 277 273 269 269 274 279 283 284 285 287 283 276 273 273 273 275 281 289 295 297 298 299 300 301 302 303 306 309 311 311 312 313 313 312 313 316 318 320 319 318 317 317 317 317 317 316 316 317 318 319 318 317 316 314 312 311 310 308 306 304 304 303 300 298 297
257 253 256 267 283 278 259 235 234 246 259 267 266 262 260 263 267 269 268 270 274 274 269 263 264 271 276 279 282 283 283 282 276 272 271 271 273 278 284 290 294 295 296 297 299 300 301 304 308 310 311 312 313 313 313 315 318 320 320 319 318 317 318 319 319 319 319 320 320 320 320 319 317 315 313 312 310 310 308 306 304 302 302 301 300 298 296
262 255 245 246 256 262 263 260 256 256 262 266 266 265 264 265 266 265 264 267 267 264 261 263 271 278 280 281 282 282 279 275 271 271 272 272 276 283 288 291 294 295 296 297 298 300 303 307 309 310 311 312 313 314 316 319 320 319 318 317 317 318 320 321 322 323 324 322 320 318 316 315 314 313 313 312 310 307 306 304 303 301 300 299 298 296 296
244 242 240 247 254 259 262 264 261 260 261 261 261 264 266 267 267 267 267 267 263 262 270 277 282 284 282 280 279 276 271 269 269 271 273 276 281 286 289 292 294 295 296 298 299 302 306 309 310 311 312 313 315 317 319 320 319 318 317 318 319 320 322 324 326 325 323 319 317 317 317 318 318 317 316 314 310 307 306 305 303 302 301 299 297 296 296
250 252 241 245 255 261 260 259 259 261 262 262 262 262 263 265 270 270 265 262 263 268 277 282 284 282 281 278 274 271 270 270 271 273 275 280 284 287 290 292 294 296 297 298 301 305 308 310 311 311 312 314 318 320 319 318 318 318 318 319 321 323 325 327 326 324 320 319 320 321 322 322 320 319 318 315 311 307 306 305 301 298 298 297 296 296 296
249 245 235 236 243 253 254 257 261 264 264 261 260 260 261 263 268 268 263 262 268 275 280 283 282 281 281 279 275 273 273 273 274 277 280 283 285 287 290 292 293 295 297 300 303 306 308 310 311 311 311 316 321 320 317 318 318 318 320 321 323 326 328 327 325 323 322 324 326 325 324 323 320 318 318 317 313 307 305 304 298 293 293 294 296 297 296
245 248 244 238 235 241 251 258 266 270 267 260 255 257 261 263 263 261 259 261 269 276 280 281 281 280 279 278 276 275 274 275 277 280 282 283 286 289 291 293 294 295 298 301 304 306 309 311 311 310 313 319 321 318 316 318 319 320 323 324 325 327 328 326 324 325 327 328 329 327 325 323 320 318 317 318 317 314 310 307 303 298 296 296 297 298 296
256 257 257 252 247 251 256 262 268 271 269 267 262 259 261 263 261 258 257 263 272 278 277 277 277 276 275 275 275 274 274 277 279 281 282 285 288 290 292 293 295 297 300 303 306 308 311 311 310 310 316 320 319 316 316 319 321 323 325 326 327 328 327 326 327 330 332 331 329 327 325 324 322 319 317 316 316 317 316 313 311 309 306 303 301 300 298
253 256 260 260 257 259 265 269 271 271 271 271 268 264 263 262 260 259 262 268 275 276 273 271 272 272 271 272 272 273 274 277 280 281 283 286 287 289 292 294 296 298 301 304 307 310 311 310 309 312 316 319 316 315 318 322 323 325 328 329 329 328 328 329 333 335 335 333 330 327 325 324 322 320 318 315 314 315 317 317 317 318 317 315 312 309 306
254 258 261 263 262 263 266 268 269 269 269 268 266 265 264 261 258 260 264 268 272 272 270 269 269 270 271 270 270 271 272 275 278 280 282 284 286 289 292 294 296 299 302 305 309 311 310 309 309 312 315 317 316 317 321 324 325 327 331 332 330 329 332 335 336 336 336 333 329 326 325 323 320 319 317 316 314 313 314 317 319 321 323 324 325 321 317
256 258 259 261 261 260 260 261 265 268 268 264 260 259 260 259 260 261 262 265 267 268 268 267 268 270 271 269 268 270 272 274 276 277 279 283 286 289 292 294 297 300 303 306 309 309 308 308 309 311 314 316 318 320 323 325 327 331 335 334 331 332 338 340 338 337 336 332 329 327 325 323 321 319 317 316 315 313 313 314 315 317 320 324 329 330 325
259 259 256 252 252 257 260 262 264 265 263 258 254 253 255 258 259 261 263 265 266 266 266 267 268 268 268 268 269 272 273 274 275 277 280 283 287 289 292 295 298 301 304 307 308 307 307 307 308 310 313 318 320 322 325 328 330 335 337 335 333 337 343 344 341 339 336 333 330 329 326 324 321 319 317 316 315 314 313 313 313 314 316 320 326 331 332
260 260 259 257 257 262 264 262 261 259 256 254 252 250 253 256 259 263 267 268 267 267 267 267 267 266 267 269 271 272 273 275 276 279 281 283 286 290 293 296 299 302 304 306 307 306 306 306 307 309 314 319 322 323 327 331 333 336 338 337 337 341 345 345 342 340 336 333 331 330 328 326 323 320 318 318 317 315 315 314 314 315 316 319 322 326 331
261 261 263 264 263 263 260 257 255 253 250 249 249 250 255 259 261 264 267 268 267 268 267 266 266 266 266 267 269 270 273 275 277 279 281 284 288 293 295 298 300 302 303 305 306 305 303 304 306 309 315 321 323 326 330 333 334 337 339 339 340 344 346 346 344 340 336 333 332 331 330 329 326 323 321 320 319 318 317 317 317 316 317 319 320 322 327
264 263 263 262 260 257 255 253 252 250 247 248 252 255 259 261 262 264 266 266 266 266 265 265 266 265 264 265 267 268 271 274 276 279 282 286 291 295 298 300 302 303 304 305 306 304 302 303 306 310 316 321 325 329 331 332 334 338 340 340 342 347 349 348 346 341 336 334 333 332 332 331 329 327 325 323 323 322 320 319 319 319 319 320 321 322 326
262 259 257 256 252 250 249 247 246 248 250 252 256 260 262 263 263 265 266 265 264 263 262 262 264 264 263 264 265 267 271 274 276 279 284 288 293 296 298 300 301 301 302 304 303 301 300 302 306 311 316 322 327 331 330 331 335 339 340 340 343 349 352 352 347 341 337 336 335 334 333 333 331 331 330 328 326 324 323 322 321 321 321 321 321 324 329
250 246 248 251 247 246 248 248 248 250 253 256 260 263 264 264 265 264 263 261 260 261 261 262 264 264 264 265 267 269 272 275 277 281 286 290 294 297 299 299 299 299 299 299 298 297 297 300 305 310 315 323 329 330 328 330 336 340 340 341 344 349 353 353 347 341 339 339 338 337 336 335 334 334 333 331 329 328 326 325 324 324 324 323 323 326 331
251 250 255 257 255 254 257 259 259 258 256 256 259 260 262 264 266 265 262 260 260 261 262 264 265 265 266 268 269 271 273 276 279 284 288 292 295 298 297 296 296 295 294 294 293 292 294 298 302 308 315 324 328 327 327 332 338 340 340 342 346 350 353 351 346 342 341 341 340 339 339 338 338 338 336 335 334 332 330 329 328 327 327 328 329 332 335
255 255 258 260 259 260 263 266 267 265 260 259 259 260 262 264 264 263 262 260 259 261 262 263 264 265 267 270 272 274 276 280 283 288 292 295 296 296 294 294 294 292 291 291 290 288 290 294 300 307 316 323 325 326 328 333 338 341 342 344 348 351 351 348 345 344 344 343 342 342 342 342 343 343 341 340 339 338 336 336 335 334 334 335 336 338 341
256 257 259 261 262 263 264 264 265 265 263 262 262 261 260 260 258 258 258 258 259 262 263 264 266 268 270 274 276 277 280 285 289 293 294 294 294 293 292 293 293 293 292 291 285 281 285 292 300 307 314 320 324 327 330 334 339 342 344 346 350 352 351 347 346 346 347 347 345 345 346 346 347 347 347 346 345 346 346 344 343 342 342 342 343 343 346
256 258 260 262 262 263 262 262 264 264 263 261 260 257 256 255 255 255 257 260 262 265 266 267 270 273 275 278 280 281 286 290 293 294 293 292 292 292 291 291 293 293 292 289 283 279 284 291 298 305 312 318 322 327 333 337 341 343 344 348 353 354 352 349 349 350 350 350 349 349 350 351 352 352 353 353 353 354 354 352 351 351 351 349 349 350 351
256 257 259 261 261 261 261 261 262 261 258 256 254 253 253 254 256 257 260 262 263 264 266 269 272 275 278 281 283 286 291 293 293 291 290 290 291 290 289 290 293 292 287 284 282 281 286 291 297 305 313 317 321 328 336 341 342 343 344 350 356 357 355 352 352 353 353 353 354 355 357 359 360 1 2 3 3 3 3 1 0 1 0 359 359 358 358
254 255 257 257 257 257 257 257 256 255 252 251 252 253 254 257 259 261 262 263 265 268 272 276 279 281 283 286 288 290 292 291 290 289 289 289 289 288 287 290 293 288 281 278 279 283 288 293 299 308 314 315 320 329 338 343 344 344 345 351 357 359 357 354 354 355 356 357 358 1 5 8 10 11 12 12 13 14 15 14 13 12 11 11 10 10 10
251 252 252 251 251 251 250 249 248 248 247 248 249 252 255 258 260 263 267 271 274 278 281 283 285 287 289 291 291 291 291 290 289 288 288 287 286 285 286 289 289 278 271 273 278 284 290 296 301 307 311 314 320 330 339 345 346 345 346 351 357 358 357 356 356 357 358 0 2 5 9 14 17 19 20 20 22 24 25 26 25 24 23 24 24 24 25
244 244 243 242 243 244 243 243 242 242 241 242 245 250 257 262 266 271 276 278 280 283 285 287 289 290 291 291 291 290 290 289 289 288 286 285 283 282 284 286 278 261 261 269 277 283 289 294 298 303 308 313 321 331 339 344 345 345 347 352 356 355 355 357 359 360 1 2 4 6 9 13 17 21 23 24 26 28 29 31 32 32 31 31 32 32 32
234 235 235 235 236 237 236 236 238 238 241 245 250 257 265 271 275 279 281 283 285 287 288 289 290 290 290 289 288 288 287 287 287 286 284 281 279 279 280 279 264 250 258 269 276 282 286 290 294 300 306 313 322 332 338 340 341 344 349 353 354 354 354 356 359 1 1 2 3 6 8 10 13 18 21 23 25 27 28 30 32 33 33 33 34 34 34
225 227 226 226 226 226 226 230 236 243 251 259 265 271 277 281 285 288 289 290 292 291 290 290 289 288 287 287 286 285 285 286 286 285 282 278 273 272 273 269 253 246 258 269 275 278 283 287 292 299 307 315 324 332 336 336 337 342 347 351 353 354 355 358 360 1 1 1 2 5 8 10 12 15 17 20 22 24 25 26 29 31 32 33 34 35 36
215 214 213 215 216 219 225 233 241 252 264 273 281 287 289 290 293 294 295 295 295 294 293 292 291 289 288 287 285 285 286 286 285 284 281 275 265 259 260 259 251 249 260 271 275 278 283 288 295 301 309 319 327 331 331 333 336 340 343 347 351 353 355 358 0 2 2 3 3 5 7 10 12 14 16 18 20 21 22 24 26 29 31 32 34 36 38
202 200 203 209 213 220 233 246 256 268 277 286 293 296 296 297 298 299 299 299 299 298 298 298 297 296 295 293 289 288 287 285 282 279 276 272 262 249 246 250 253 256 265 273 276 279 285 290 297 305 316 326 330 329 329 333 336 337 338 342 346 350 353 356 360 3 5 5 5 6 8 10 12 13 16 19 20 22 23 24 25 27 29 31 33 35 36
191 194 202 213 221 235 254 269 278 285 290 295 298 298 298 299 301 302 302 302 304 305 305 304 303 302 300 296 292 288 285 281 277 270 265 264 259 247 240 245 251 258 266 272 276 280 285 291 301 313 323 329 330 328 331 335 335 334 337 340 342 345 348 352 357 1 4 5 6 7 8 9 11 13 15 18 20 23 25 26 26 27 29 31 32 34 35
188 195 207 221 236 256 273 284 291 296 299 303 304 303 302 303 306 308 308 309 310 312 312 310 309 306 301 294 289 285 282 280 274 262 253 251 247 240 238 245 254 260 267 273 276 280 285 295 308 319 326 330 330 329 332 336 335 334 337 339 340 341 345 348 352 356 359 2 4 6 6 7 9 11 12 15 17 19 22 25 27 28 29 30 31 32 33
189 201 214 231 251 270 282 290 297 301 305 308 311 311 312 315 316 315 314 315 316 316 316 316 314 311 304 296 289 284 280 278 272 259 246 241 238 237 242 253 260 264 269 273 277 283 292 304 317 324 326 326 327 329 331 332 333 335 337 337 338 340 343 345 347 351 353 355 357 0 2 4 6 7 8 11 13 15 17 19 22 24 26 26 27 27 28
193 203 217 239 261 277 286 293 300 305 309 314 319 322 324 326 323 319 317 320 323 323 325 325 322 318 314 307 296 286 276 270 265 257 248 242 241 244 253 261 265 267 270 274 280 290 297 305 315 320 319 317 321 325 325 324 326 331 333 333 335 340 343 344 345 347 348 348 350 352 354 358 1 3 4 6 7 8 10 12 13 16 18 19 20 22 24
191 201 221 244 263 278 287 295 303 312 319 325 330 330 329 329 327 325 328 334 334 332 333 333 329 326 326 324 315 304 291 277 270 262 253 246 247 252 258 263 267 271 274 277 284 294 300 304 310 312 313 313 316 318 318 319 323 327 329 329 332 337 339 339 341 342 342 344 345 346 348 350 352 354 356 358 358 360 2 4 4 6 8 9 10 13 16
194 207 223 242 261 276 291 304 314 322 328 332 334 333 333 335 337 336 338 341 340 339 340 342 338 334 333 333 328 321 310 295 281 270 259 253 255 261 265 268 272 278 282 287 294 301 305 307 307 308 311 314 315 316 320 325 327 329 331 333 335 336 336 337 337 338 338 339 341 342 343 344 344 344 345 347 348 350 351 352 353 355 357 359 0 3 4
200 205 208 227 262 282 303 316 319 320 323 329 334 337 340 342 341 338 336 338 343 344 344 342 339 336 334 332 328 322 315 304 293 285 278 274 272 274 276 278 282 288 293 298 303 305 307 307 308 309 313 316 317 321 327 330 330 331 333 335 334 334 334 334 335 335 335 335 336 337 337 338 338 338 339 339 340 341 342 342 342 344 345 347 349 351 351
Height
1502 1500 1501 1500 1500 1501 1500 1500 1499 1497 1495 1494 1494 1494 1493 1493 1496 1492 1485 1484 1485 1482 1481 1481 1481 1481 1481 1481 1481 1480 1480 1480 1481 1483 1484 1486 1486 1486 1486 1487 1488 1488 1488 1489 1489 1489 1489 1488 1488 1488 1488 1487 1487 1487 1486 1485 1484 1483 1482 1481 1480 1478 1477 1476 1475 1473 1472 1470 1468 1467 1464 1462 1460 1457 1455 1453 1451 1449 1448 1446 1444 1443 1441 1439 1436 1434 1432
1503 1501 1501 1500 1502 1502 1501 1499 1498 1495 1492 1490 1491 1492 1490 1489 1489 1485 1482 1482 1480 1479 1479 1479 1479 1480 1479 1479 1480 1480 1480 1481 1482 1483 1485 1485 1485 1485 1485 1485 1486 1486 1487 1487 1487 1487 1487 1487 1486 1486 1486 1485 1485 1484 1483 1482 1481 1480 1479 1478 1476 1475 1474 1473 1471 1470 1468 1466 1465 1463 1461 1459 1457 1455 1452 1450 1447 1445 1443 1441 1439 1437 1435 1434 1432 1430 1428
1506 1501 1500 1502 1503 1503 1502 1500 1496 1492 1490 1490 1490 1490 1487 1487 1486 1481 1480 1481 1478 1477 1477 1478 1479 1479 1479 1479 1481 1481 1481 1482 1483 1484 1485 1484 1484 1484 1484 1485 1485 1485 1485 1485 1485 1485 1485 1485 1484 1484 1483 1483 1482 1482 1481 1480 1478 1477 1476 1474 1473 1472 1470 1469 1467 1465 1463 1462 1460 1458 1457 1455 1453 1451 1449 1447 1445 1442 1440 1437 1435 1432 1430 1428 1426 1425 1423
1508 1500 1501 1503 1502 1503 1504 1499 1492 1490 1490 1490 1488 1486 1486 1485 1483 1481 1481 1481 1478 1476 1477 1478 1478 1478 1479 1480 1481 1481 1482 1482 1483 1484 1483 1483 1484 1484 1484 1484 1483 1483 1483 1483 1483 1483 1483 1482 1482 1481 1481 1480 1480 1479 1478 1477 1476 1475 1473 1471 1470 1468 1466 1465 1463 1461 1459 1457 1455 1453 1452 1450 1448 1446 1444 1442 1440 1438 1435 1433 1431 1428 1426 1423 1421 1420 1418
1507 1500 1501 1502 1503 1508 1504 1491 1484 1486 1486 1486 1484 1483 1483 1481 1479 1480 1481 1479 1477 1477 1478 1478 1478 1479 1480 1481 1481 1482 1482 1482 1482 1483 1483 1483 1483 1483 1483 1483 1482 1482 1481 1481 1481 1481 1480 1480 1479 1478 1478 1477 1477 1476 1475 1474 1473 1472 1470 1468 1467 1465 1462 1461 1459 1457 1455 1452 1450 1448 1446 1444 1442 1439 1437 1435 1433 1431 1429 1427 1425 1422 1420 1418 1416 1414 1412
1508 1502 1500 1504 1509 1507 1492 1477 1477 1480 1480 1480 1481 1480 1478 1476 1476 1476 1475 1474 1476 1477 1478 1478 1480 1480 1480 1481 1481 1481 1482 1482 1482 1482 1482 1482 1482 1482 1482 1482 1481 1481 1480 1479 1479 1479 1479 1479 1477 1476 1475 1474 1474 1473 1472 1471 1470 1469 1467 1465 1463 1461 1459 1457 1454 1452 1450 1447 1445 1442 1440 1437 1435 1432 1430 1428 1425 1423 1421 1419 1416 1414 1413 1411 1409 1407 1406
1506 1502 1504 1512 1508 1491 1477 1473 1475 1476 1475 1477 1477 1476 1474 1474 1473 1472 1472 1473 1476 1477 1478 1479 1480 1480 1480 1480 1480 1480 1481 1481 1481 1480 1480 1480 1480 1480 1480 1480 1479 1479 1479 1478 1478 1477 1477 1476 1475 1474 1473 1472 1471 1470 1469 1468 1467 1465 1463 1461 1459 1456 1454 1452 1450 1448 1445 1442 1439 1436 1434 1431 1429 1426 1424 1421 1418 1416 1414 1411 1408 1406 1404 1402 1400 1398 1397
1504 1504 1507 1505 1492 1477 1474 1475 1473 1473 1475 1475 1475 1476 1474 1471 1471 1472 1473 1475 1477 1477 1478 1479 1479 1480 1479 1478 1478 1478 1479 1479 1478 1478 1478 1478 1478 1478 1478 1478 1477 1477 1477 1476 1476 1475 1474 1473 1473 1472 1470 1469 1468 1466 1466 1465 1463 1461 1459 1456 1454 1452 1449 1447 1445 1442 1440 1436 1433 1430 1428 1425 1422 1419 1417 1414 1412 1410 1407 1404 1401 1398 1396 1393 1391 1389 1388
1500 1502 1500 1490 1482 1478 1476 1474 1472 1473 1474 1473 1475 1479 1476 1470 1470 1471 1473 1476 1477 1477 1478 1479 1479 1479 1479 1478 1476 1476 1476 1476 1476 1476 1476 1476 1477 1476 1476 1476 1475 1475 1475 1474 1473 1473 1471 1471 1470 1469 1467 1466 1464 1463 1462 1460 1458 1456 1453 1451 1449 1446 1444 1441 1439 1436 1434 1430 1427 1424 1421 1419 1415 1413 1410 1407 1405 1403 1400 1396 1393 1390 1387 1384 1382 1380 1378
1493 1496 1496 1491 1489 1484 1474 1472 1474 1474 1474 1473 1474 1478 1477 1472 1470 1470 1471 1474 1476 1476 1477 1478 1477 1478 1479 1478 1475 1474 1475 1475 1475 1475 1475 1475 1475 1474 1474 1474 1473 1473 1473 1472 1471 1470 1469 1468 1467 1465 1464 1462 1460 1459 1457 1455 1453 1450 1448 1446 1443 1441 1438 1436 1433 1430 1427 1424 1421 1418 1415 1412 1409 1406 1403 1400 1397 1395 1392 1388 1384 1381 1378 1375 1372 1370 1368
1491 1494 1494 1490 1486 1478 1469 1472 1473 1472 1474 1473 1472 1478 1477 1471 1470 1471 1471 1473 1475 1475 1476 1476 1476 1478 1479 1477 1474 1474 1474 1474 1474 1474 1473 1473 1473 1472 1471 1471 1471 1471 1470 1469 1468 1467 1466 1465 1463 1462 1460 1458 1456 1454 1452 1450 1448 1445 1443 1441 1438 1435 1432 1429 1427 1424 1421 1418 1415 1412 1409 1405 1402 1399 1395 1392 1390 1387 1384 1380 1376 1372 1370 1366 1362 1360 1358
1490 1490 1490 1485 1479 1473 1469 1471 1472 1471 1471 1471 1477 1484 1477 1468 1469 1471 1470 1472 1473 1473 1474 1475 1475 1476 1477 1474 1472 1472 1472 1472 1472 1472 1471 1471 1470 1469 1468 1468 1468 1468 1467 1467 1466 1464 1463 1461 1459 1457 1456 1454 1452 1450 1447 1446 1443 1441 1439 1436 1433 1430 1426 1423 1421 1418 1415 1411 1408 1405 1402 1398 1395 1392 1388 1385 1382 1378 1375 1372 1368 1364 1361 1358 1354 1350 1348
1487 1487 1487 1482 1474 1468 1468 1469 1469 1469 1470 1474 1480 1481 1471 1466 1469 1470 1468 1471 1471 1471 1472 1473 1472 1472 1472 1470 1470 1470 1470 1470 1470 1470 1470 1468 1467 1466 1466 1465 1465 1465 1464 1463 1462 1460 1459 1457 1455 1453 1451 1449 1448 1446 1443 1441 1439 1436 1434 1430 1427 1424 1420 1417 1414 1410 1407 1404 1401 1397 1394 1391 1387 1383 1381 1377 1374 1370 1367 1363 1360 1356 1352 1350 1346 1340 1337
1486 1483 1483 1481 1473 1464 1464 1467 1466 1467 1472 1475 1474 1468 1464 1466 1468 1467 1467 1469 1468 1469 1470 1469 1469 1469 1468 1468 1468 1468 1468 1468 1467 1468 1467 1465 1464 1463 1463 1462 1462 1461 1460 1459 1458 1457 1455 1453 1451 1449 1447 1446 1444 1442 1439 1437 1435 1431 1428 1425 1421 1417 1414 1410 1407 1403 1400 1397 1394 1390 1387 1384 1379 1375 1373 1370 1366 1363 1359 1355 1351 1347 1344 1341 1337 1331 1326
1480 1479 1480 1481 1474 1463 1461 1465 1466 1466 1468 1468 1464 1462 1463 1465 1464 1465 1466 1466 1466 1467 1467 1466 1466 1466 1465 1466 1466 1465 1466 1465 1465 1464 1463 1462 1461 1460 1460 1459 1458 1458 1457 1455 1454 1453 1451 1449 1447 1445 1444 1442 1440 1438 1435 1433 1430 1426 1423 1419 1415 1411 1407 1404 1400 1397 1394 1391 1388 1384 1380 1377 1373 1368 1365 1362 1359 1356 1353 1349 1344 1340 1337 1334 1330 1324 1318
1473 1475 1471 1468 1464 1459 1459 1462 1463 1462 1463 1462 1461 1462 1462 1462 1462 1463 1463 1463 1463 1464 1463 1463 1464 1463 1463 1463 1463 1463 1463 1462 1462 1461 1460 1459 1459 1457 1457 1456 1455 1454 1453 1452 1450 1449 1447 1445 1444 1442 1440 1438 1435 1433 1431 1428 1424 1420 1416 1413 1409 1405 1402 1399 1395 1392 1389 1385 1382 1378 1375 1371 1367 1362 1358 1355 1352 1350 1347 1344 1340 1335 1331 1329 1325 1319 1314
1461 1462 1458 1455 1455 1456 1458 1459 1459 1459 1460 1459 1460 1460 1459 1459 1460 1460 1460 1460 1461 1461 1461 1461 1461 1460 1460 1460 1460 1460 1460 1459 1459 1458 1457 1456 1456 1454 1453 1453 1451 1451 1449 1448 1447 1445 1444 1442 1440 1438 1436 1434 1431 1429 1426 1423 1419 1414 1410 1407 1403 1400 1397 1394 1390 1387 1383 1379 1376 1372 1369 1365 1360 1356 1353 1350 1347 1345 1343 1340 1336 1331 1326 1324 1320 1315 1310
1454 1453 1452 1452 1454 1454 1454 1455 1456 1456 1456 1456 1456 1456 1456 1456 1456 1456 1457 1457 1457 1457 1458 1458 1457 1458 1458 1457 1457 1457 1456 1456 1455 1455 1454 1453 1452 1451 1450 1449 1448 1447 1446 1444 1443 1441 1440 1439 1437 1435 1432 1430 1427 1424 1421 1417 1413 1408 1405 1402 1398 1395 1392 1389 1386 1382 1377 1372 1369 1365 1362 1360 1356 1353 1350 1346 1343 1341 1338 1335 1331 1327 1322 1319 1316 1311 1306
1455 1453 1450 1451 1452 1451 1451 1452 1453 1452 1453 1453 1452 1452 1452 1451 1452 1453 1453 1453 1453 1454 1454 1454 1455 1455 1454 1454 1454 1453 1453 1453 1452 1451 1450 1449 1448 1447 1447 1445 1445 1443 1442 1440 1439 1437 1436 1435 1433 1431 1428 1426 1423 1420 1416 1412 1408 1404 1401 1398 1394 1391 1388 1384 1380 1376 1371 1366 1363 1360 1358 1356 1353 1349 1347 1343 1339 1336 1333 1330 1326 1323 1319 1315 1311 1307 1301
1451 1449 1448 1448 1449 1448 1447 1448 1449 1449 1449 1449 1449 1449 1448 1448 1449 1449 1449 1450 1450 1450 1451 1451 1451 1451 1451 1451 1450 1449 1449 1449 1448 1447 1446 1445 1445 1444 1443 1442 1441 1440 1438 1437 1435 1434 1432 1431 1429 1426 1424 1421 1419 1415 1411 1408 1404 1401 1397 1394 1390 1387 1383 1379 1374 1371 1367 1363 1359 1355 1353 1350 1347 1344 1341 1338 1335 1331 1329 1326 1322 1317 1314 1310 1306 1302 1297
1445 1445 1445 1446 1446 1445 1444 1444 1444 1445 1444 1444 1444 1445 1445 1445 1446 1446 1446 1446 1446 1446 1447 1447 1447 1446 1446 1446 1446 1446 1445 1445 1444 1444 1443 1442 1441 1441 1439 1438 1437 1436 1434 1433 1431 1430 1428 1426 1424 1421 1419 1417 1415 1411 1407 1404 1401 1397 1393 1390 1386 1383 1378 1374 1371 1367 1363 1359 1355 1350 1346 1343 1341 1339 1337 1334 1330 1326 1324 1323 1320 1315 1311 1306 1303 1299 1295
1443 1442 1441 1442 1443 1442 1440 1439 1440 1440 1441 1441 1440 1441 1441 1442 1442 1442 1442 1442 1442 1443 1443 1443 1443 1442 1442 1442 1442 1441 1441 1441 1441 1440 1439 1439 1438 1437 1436 1435 1434 1432 1431 1429 1428 1426 1424 1422 1420 1417 1415 1413 1410 1407 1404 1401 1398 1394 1390 1385 1382 1378 1374 1371 1367 1363 1358 1353 1350 1346 1342 1338 1335 1332 1330 1330 1328 1324 1320 1318 1317 1314 1310 1305 1301 1298 1294
1437 1436 1436 1437 1438 1437 1435 1435 1436 1437 1437 1437 1437 1437 1438 1438 1438 1439 1439 1439 1439 1439 1439 1439 1439 1438 1438 1438 1437 1437 1437 1437 1436 1436 1435 1435 1434 1433 1432 1431 1430 1429 1427 1426 1424 1423 1420 1418 1416 1413 1411 1409 1407 1403 1401 1398 1395 1391 1387 1382 1377 1374 1371 1368 1364 1359 1353 1348 1345 1342 1338 1335 1331 1326 1323 1322 1322 1320 1317 1313 1311 1309 1306 1302 1298 1296 1292
1432 1431 1432 1433 1434 1432 1431 1432 1433 1433 1434 1434 1433 1433 1434 1434 1434 1434 1434 1435 1435 1435 1435 1435 1434 1434 1434 1434 1433 1433 1433 1432 1432 1432 1432 1431 1430 1430 1429 1427 1426 1425 1423 1422 1420 1418 1416 1414 1411 1409 1407 1405 1403 1400 1398 1395 1392 1388 1385 1380 1375 1371 1368 1364 1359 1354 1349 1345 1342 1339 1335 1332 1328 1324 1319 1314 1312 1311 1311 1309 1306 1302 1299 1296 1293 1290 1288
1427 1427 1428 1429 1430 1429 1428 1428 1429 1429 1429 1429 1428 1429 1429 1430 1430 1430 1430 1430 1431 1431 1431 1430 1430 1430 1430 1429 1429 1429 1429 1429 1428 1428 1427 1427 1427 1426 1425 1424 1423 1421 1420 1418 1416 1414 1412 1410 1407 1405 1403 1402 1400 1397 1394 1392 1388 1385 1382 1378 1373 1369 1365 1360 1354 1350 1346 1343 1340 1336 1333 1329 1326 1322 1318 1313 1307 1303 1301 1301 1300 1297 1294 1291 1288 1284 1281
1423 1424 1425 1426 1425 1425 1425 1424 1423 1423 1425 1425 1424 1424 1424 1425 1426 1426 1426 1426 1426 1427 1427 1426 1425 1425 1425 1425 1425 1425 1425 1425 1424 1424 1424 1423 1423 1422 1422 1420 1419 1417 1416 1414 1412 1410 1408 1406 1403 1401 1400 1399 1396 1393 1391 1388 1385 1382 1378 1374 1371 1367 1362 1356 1351 1347 1344 1342 1338 1334 1331 1328 1324 1320 1317 1313 1308 1302 1296 1292 1290 1288 1287 1285 1283 1279 1275
1420 1421 1422 1422 1420 1420 1419 1419 1418 1419 1420 1420 1420 1420 1420 1421 1421 1421 1421 1422 1422 1422 1422 1422 1421 1421 1421 1420 1421 1421 1421 1420 1420 1420 1420 1419 1419 1419 1418 1416 1415 1414 1412 1410 1408 1407 1404 1402 1400 1398 1397 1396 1393 1390 1388 1385 1382 1378 1375 1371 1368 1364 1359 1353 1349 1346 1343 1340 1336 1332 1329 1325 1322 1319 1315 1311 1307 1303 1297 1292 1286 1282 1279 1278 1276 1274 1270
1415 1416 1417 1417 1415 1413 1414 1415 1415 1415 1415 1415 1415 1415 1416 1416 1417 1417 1417 1417 1417 1417 1417 1417 1417 1417 1417 1417 1417 1417 1416 1416 1416 1416 1416 1416 1415 1415 1414 1412 1411 1409 1407 1406 1405 1403 1400 1398 1396 1395 1394 1392 1390 1387 1384 1381 1378 1375 1371 1368 1365 1360 1355 1350 1347 1344 1341 1338 1335 1331 1327 1323 1320 1317 1313 1309 1305 1301 1297 1293 1288 1282 1277 1273 1271 1269 1266
1410 1410 1411 1411 1410 1410 1410 1411 1411 1410 1410 1410 1410 1411 1411 1412 1412 1412 1412 1412 1413 1413 1413 1413 1413 1413 1413 1413 1413 1413 1413 1412 1412 1412 1412 1412 1412 1411 1409 1408 1406 1405 1403 1402 1401 1399 1397 1395 1393 1392 1391 1389 1386 1384 1381 1378 1375 1372 1368 1365 1362 1356 1351 1347 1344 1342 1339 1337 1333 1329 1325 1321 1318 1315 1311 1307 1304 1299 1295 1291 1287 1282 1276 1271 1268 1265 1261
1404 1406 1406 1406 1407 1407 1406 1406 1406 1406 1406 1406 1406 1407 1407 1408 1408 1408 1408 1408 1408 1408 1408 1408 1408 1409 1409 1409 1409 1409 1409 1409 1408 1408 1408 1408 1407 1407 1405 1403 1402 1400 1399 1398 1397 1395 1393 1392 1390 1389 1387 1386 1383 1381 1378 1375 1372 1369 1366 1363 1359 1353 1348 1345 1342 1339 1337 1334 1331 1327 1323 1319 1316 1312 1309 1305 1301 1297 1293 1289 1285 1280 1276 1271 1267 1263 1259
1400 1401 1402 1402 1402 1402 1401 1402 1402 1402 1402 1403 1403 1403 1403 1403 1403 1404 1404 1404 1404 1404 1404 1404 1404 1405 1405 1405 1405 1405 1405 1405 1404 1404 1404 1404 1403 1402 1401 1399 1397 1396 1394 1393 1393 1391 1390 1388 1388 1386 1384 1382 1380 1377 1375 1372 1369 1366 1363 1361 1356 1351 1347 1343 1340 1338 1336 1332 1328 1325 1321 1317 1314 1310 1306 1303 1299 1295 1291 1287 1283 1279 1274 1270 1266 1262 1258
1397 1397 1397 1397 1397 1397 1397 1397 1397 1398 1398 1398 1398 1398 1398 1399 1399 1399 1400 1400 1400 1400 1400 1400 1400 1401 1401 1401 1402 1402 1401 1401 1401 1401 1400 1400 1399 1398 1396 1395 1393 1392 1390 1389 1389 1388 1386 1385 1384 1383 1382 1380 1378 1375 1373 1370 1367 1363 1361 1358 1354 1349 1344 1341 1339 1337 1334 1331 1327 1323 1319 1315 1312 1308 1304 1301 1297 1293 1289 1285 1281 1277 1273 1269 1265 1261 1257
1392 1391 1391 1392 1392 1392 1392 1392 1393 1394 1394 1394 1394 1394 1395 1395 1395 1396 1396 1396 1396 1396 1396 1397 1397 1398 1398 1398 1398 1398 1398 1398 1397 1397 1397 1396 1395 1393 1392 1391 1390 1389 1387 1387 1386 1385 1383 1382 1381 1380 1379 1377 1375 1373 1371 1368 1364 1361 1359 1356 1351 1346 1341 1339 1338 1336 1333 1329 1325 1321 1318 1314 1310 1307 1303 1299 1295 1292 1288 1284 1280 1276 1272 1268 1264 1260 1256
1387 1386 1386 1386 1387 1387 1387 1388 1389 1390 1390 1390 1391 1391 1391 1391 1391 1392 1392 1392 1392 1393 1393 1393 1394 1394 1394 1395 1395 1395 1395 1394 1394 1393 1392 1391 1390 1389 1388 1387 1387 1385 1384 1384 1383 1382 1381 1380 1378 1377 1376 1374 1373 1371 1368 1365 1362 1360 1357 1354 1349 1343 1339 1338 1337 1334 1331 1327 1323 1320 1317 1313 1309 1306 1302 1298 1294 1291 1287 1283 1280 1275 1271 1267 1262 1258 1255
1382 1382 1382 1383 1383 1384 1384 1384 1385 1386 1386 1386 1387 1387 1388 1388 1388 1388 1389 1389 1390 1390 1390 1390 1390 1391 1391 1391 1391 1391 1391 1390 1390 1389 1388 1387 1386 1385 1384 1384 1383 1382 1381 1381 1380 1378 1378 1377 1376 1374 1373 1372 1371 1369 1366 1363 1360 1358 1355 1352 1347 1342 1338 1337 1336 1333 1329 1326 1322 1319 1315 1312 1308 1305 1301 1297 1293 1290 1286 1282 1279 1274 1270 1266 1261 1257 1253
1378 1378 1379 1379 1380 1380 1381 1381 1382 1382 1382 1383 1383 1384 1384 1385 1385 1385 1386 1386 1386 1387 1387 1387 1387 1387 1387 1388 1388 1387 1387 1387 1386 1385 1384 1383 1382 1381 1380 1379 1379 1377 1377 1377 1377 1376 1375 1375 1374 1372 1371 1370 1368 1366 1364 1361 1358 1356 1354 1350 1345 1341 1338 1337 1335 1332 1328 1325 1321 1318 1315 1311 1308 1304 1300 1296 1292 1289 1285 1281 1277 1273 1270 1265 1261 1257 1252
1373 1374 1375 1375 1376 1377 1377 1378 1378 1379 1379 1380 1380 1381 1381 1381 1382 1382 1383 1383 1384 1384 1384 1384 1384 1384 1384 1384 1384 1383 1383 1383 1382 1381 1380 1379 1378 1377 1376 1375 1375 1374 1373 1373 1374 1373 1373 1372 1371 1370 1368 1367 1366 1364 1361 1359 1356 1354 1352 1348 1344 1340 1337 1336 1333 1330 1327 1324 1321 1318 1314 1311 1307 1303 1300 1296 1292 1288 1284 1280 1276 1273 1269 1265 1261 1257 1253
1369 1370 1371 1371 1372 1373 1374 1374 1375 1376 1376 1377 1378 1378 1378 1378 1379 1379 1380 1381 1381 1381 1381 1381 1381 1380 1380 1380 1380 1379 1379 1379 1378 1377 1376 1375 1374 1373 1371 1371 1371 1371 1370 1370 1370 1370 1370 1369 1368 1367 1366 1365 1363 1362 1359 1357 1355 1353 1350 1347 1342 1339 1337 1335 1332 1329 1326 1323 1321 1317 1314 1310 1306 1303 1299 1295 1292 1288 1284 1280 1277 1273 1269 1265 1262 1258 1254
1365 1366 1367 1368 1369 1370 1370 1371 1372 1373 1373 1375 1375 1375 1376 1376 1377 1377 1378 1378 1378 1378 1377 1377 1377 1376 1376 1376 1376 1375 1376 1375 1374 1373 1372 1371 1370 1368 1366 1367 1368 1368 1367 1367 1367 1367 1367 1366 1365 1364 1363 1362 1361 1359 1357 1355 1353 1351 1349 1345 1341 1338 1336 1334 1331 1329 1326 1323 1320 1317 1314 1311 1307 1303 1299 1296 1292 1289 1285 1281 1278 1274 1270 1266 1263 1259 1255
1362 1363 1364 1365 1366 1366 1367 1368 1369 1370 1371 1372 1372 1373 1374 1374 1374 1375 1375 1376 1375 1374 1374 1373 1373 1373 1372 1372 1371 1371 1371 1371 1370 1369 1368 1367 1366 1364 1363 1364 1366 1365 1364 1364 1364 1364 1364 1363 1362 1361 1360 1359 1358 1356 1354 1352 1351 1349 1347 1343 1340 1338 1336 1333 1331 1328 1326 1323 1320 1318 1314 1311 1308 1304 1301 1297 1293 1290 1286 1283 1279 1276 1272 1269 1265 1262 1258
1359 1360 1361 1362 1363 1364 1365 1366 1367 1367 1369 1370 1370 1371 1371 1371 1372 1372 1372 1372 1372 1371 1371 1370 1369 1369 1368 1368 1367 1367 1366 1366 1366 1366 1364 1363 1362 1361 1360 1362 1363 1362 1361 1361 1362 1362 1361 1361 1360 1358 1358 1357 1355 1353 1352 1350 1349 1347 1345 1342 1339 1337 1335 1333 1330 1328 1325 1323 1320 1318 1315 1312 1309 1306 1302 1299 1295 1292 1288 1285 1281 1278 1275 1272 1268 1265 1262
1357 1358 1359 1360 1362 1363 1364 1365 1366 1366 1367 1368 1368 1369 1369 1369 1369 1369 1369 1369 1369 1369 1368 1367 1366 1365 1365 1364 1363 1362 1362 1362 1362 1362 1361 1360 1359 1358 1357 1359 1360 1360 1359 1359 1360 1359 1359 1358 1357 1356 1355 1354 1353 1351 1349 1348 1347 1346 1343 1341 1339 1337 1334 1332 1330 1327 1325 1323 1321 1318 1316 1313 1310 1306 1303 1300 1297 1294 1291 1287 1284 1281 1278 1275 1272 1269 1265
1355 1356 1358 1359 1361 1361 1363 1364 1365 1365 1366 1366 1366 1367 1367 1366 1366 1366 1366 1366 1366 1365 1365 1364 1363 1362 1362 1361 1359 1358 1358 1358 1358 1357 1357 1356 1356 1355 1355 1356 1357 1357 1357 1357 1357 1357 1357 1356 1355 1354 1353 1351 1350 1349 1348 1347 1345 1343 1341 1340 1338 1336 1334 1332 1329 1327 1325 1323 1321 1318 1316 1313 1310 1307 1304 1302 1299 1296 1293 1290 1287 1284 1281 1278 1275 1273 1270
1354 1355 1356 1358 1359 1360 1362 1363 1363 1364 1364 1364 1364 1365 1364 1364 1364 1363 1363 1363 1362 1362 1361 1361 1360 1359 1358 1357 1355 1354 1354 1354 1354 1353 1352 1352 1352 1353 1353 1353 1354 1355 1355 1355 1355 1355 1354 1353 1352 1352 1351 1349 1348 1347 1346 1345 1343 1342 1340 1338 1337 1335 1333 1331 1329 1327 1325 1323 1320 1318 1316 1313 1310 1308 1305 1303 1300 1297 1295 1292 1289 1287 1284 1282 1279 1276 1274
1353 1354 1355 1357 1358 1359 1360 1361 1362 1363 1363 1363 1363 1363 1362 1362 1362 1361 1360 1360 1359 1358 1358 1356 1355 1354 1354 1352 1351 1351 1350 1350 1350 1350 1349 1349 1350 1351 1351 1352 1352 1352 1353 1353 1353 1352 1352 1351 1350 1349 1348 1347 1346 1345 1344 1343 1341 1340 1339 1337 1336 1334 1333 1331 1329 1327 1325 1323 1321 1318 1316 1314 1311 1309 1306 1304 1301 1299 1296 1294 1292 1289 1287 1284 1282 1279 1277
1352 1353 1355 1356 1357 1358 1359 1360 1361 1361 1361 1361 1361 1361 1360 1360 1360 1359 1358 1357 1356 1355 1354 1353 1352 1351 1350 1349 1348 1347 1347 1346 1347 1347 1347 1347 1348 1349 1349 1350 1350 1350 1351 1351 1350 1350 1350 1349 1348 1347 1346 1345 1344 1344 1342 1341 1340 1339 1338 1336 1335 1333 1332 1330 1328 1326 1325 1323 1321 1318 1316 1314 1312 1309 1307 1305 1303 1300 1298 1296 1294 1292 1289 1287 1285 1283 1281
1351 1353 1354 1355 1356 1357 1358 1358 1359 1359 1359 1359 1360 1359 1358 1358 1357 1357 1356 1355 1353 1352 1351 1350 1349 1348 1347 1346 1345 1345 1344 1344 1344 1345 1345 1345 1346 1347 1347 1348 1348 1349 1349 1349 1348 1348 1348 1347 1346 1345 1344 1343 1343 1342 1341 1340 1339 1338 1336 1335 1334 1332 1331 1329 1327 1326 1324 1322 1320 1319 1317 1314 1312 1310 1308 1306 1304 1302 1300 1298 1296 1294 1292 1290 1288 1286 1284
1351 1352 1353 1354 1355 1356 1356 1357 1357 1358 1358 1357 1357 1357 1356 1356 1355 1354 1353 1352 1351 1350 1349 1348 1347 1346 1345 1345 1344 1343 1343 1343 1343 1343 1344 1344 1345 1345 1346 1347 1347 1347 1347 1347 1347 1346 1346 1345 1344 1343 1342 1342 1342 1341 1339 1339 1338 1336 1335 1334 1333 1331 1330 1328 1327 1325 1323 1322 1320 1318 1317 1315 1313 1311 1309 1307 1305 1303 1301 1299 1297 1295 1293 1292 1290 1288 1286
1350 1351 1352 1353 1353 1354 1355 1356 1356 1356 1356 1356 1355 1355 1354 1354 1353 1353 1352 1351 1350 1349 1348 1347 1346 1345 1344 1343 1343 1342 1342 1342 1342 1342 1343 1343 1344 1344 1345 1345 1345 1345 1345 1345 1345 1344 1344 1343 1342 1342 1341 1341 1340 1339 1338 1337 1336 1335 1334 1333 1332 1330 1329 1327 1325 1324 1322 1321 1319 1318 1316 1314 1313 1311 1309 1307 1305 1303 1302 1300 1298 1296 1295 1293 1292 1290 1288
1349 1350 1351 1351 1352 1353 1354 1354 1355 1355 1355 1354 1354 1353 1353 1352 1352 1351 1350 1349 1348 1347 1346 1346 1345 1344 1343 1343 1342 1342 1342 1342 1341 1342 1342 1343 1343 1343 1344 1344 1344 1344 1344 1343 1343 1343 1342 1341 1341 1340 1340 1339 1338 1338 1337 1336 1335 1334 1333 1332 1330 1329 1328 1326 1325 1323 1322 1320 1319 1317 1315 1314 1312 1311 1309 1308 1306 1304 1302 1301 1299 1297 1296 1294 1293 1291 1290
1349 1349 1350 1351 1352 1352 1353 1353 1353 1353 1353 1353 1353 1352 1352 1351 1350 1349 1349 1348 1347 1346 1346 1345 1344 1344 1343 1343 1342 1342 1342 1341 1341 1341 1342 1342 1342 1342 1343 1343 1342 1342 1342 1342 1341 1341 1340 1340 1339 1339 1338 1337 1337 1336 1335 1334 1333 1332 1331 1330 1329 1328 1326 1325 1324 1322 1321 1319 1318 1316 1315 1313 1312 1310 1309 1307 1306 1304 1303 1301 1300 1298 1297 1295 1293 1292 1290
1348 1349 1350 1350 1351 1351 1352 1352 1352 1352 1352 1352 1352 1351 1350 1350 1349 1349 1348 1347 1346 1346 1345 1345 1344 1344 1343 1343 1342 1342 1342 1341 1341 1341 1341 1341 1342 1342 1341 1341 1341 1341 1340 1340 1340 1339 1339 1338 1338 1337 1336 1336 1335 1334 1333 1333 1332 1331 1330 1328 1327 1326 1325 1324 1322 1321 1320 1318 1317 1315 1314 1312 1311 1310 1308 1307 1305 1304 1302 1301 1299 1298 1297 1295 1294 1292 1291